K5WRW-WX Weather Reports


Display with metric or nautical units.
time (UTC)temp
F
wind
direction
speed
MPH
gust
MPH
rain 1hr
in
rain 24hr
in
rain mn
in
humidity
%
barometer
mb
20260902113236 79 0 4.0 5.0 0.00 0.00 0.00 75 1014.7
20260902112216 79 0 3.0 5.0 0.00 0.00 0.00 75 1014.8
20260902111215 79 0 3.0 4.0 0.00 0.00 0.00 75 1014.7
20260902110235 80 0 3.0 5.0 0.00 0.00 0.00 74 1014.8
20260902105235 80 0 3.0 5.0 0.00 0.00 0.00 74 1014.8
20260902104215 80 0 3.0 5.0 0.00 0.00 0.00 74 1014.7
20260902103236 80 158 1.0 3.0 0.00 0.00 0.00 73 1014.6
20260902102216 80 158 1.0 2.0 0.00 0.00 0.00 73 1014.6
20260902101215 80 0 2.0 4.0 0.00 0.00 0.00 73 1014.6
20260902100215 81 0 2.0 4.0 0.00 0.00 0.00 72 1014.6
20260902095215 81 180 2.0 4.0 0.00 0.00 0.00 72 1014.7
20260902094215 81 0 2.0 3.0 0.00 0.00 0.00 72 1014.6
20260902093216 81 0.0 0.0 0.00 0.00 0.00 72 1014.6
20260902092215 81 180 1.0 2.0 0.00 0.00 0.00 71 1014.6
20260902091215 81 180 2.0 4.0 0.00 0.00 0.00 71 1014.6
20260902090215 81 180 2.0 4.0 0.00 0.00 0.00 70 1014.4
20260902085215 82 180 3.0 5.0 0.00 0.00 0.00 70 1014.6
20260902084215 82 158 3.0 5.0 0.00 0.00 0.00 69 1014.6
20260902083215 82 0 4.0 5.0 0.00 0.00 0.00 69 1014.7
20260902082215 83 158 3.0 4.0 0.00 0.00 0.00 68 1014.7
20260902081215 83 158 4.0 7.0 0.00 0.00 0.00 68 1014.6
20260902080217 83 180 4.0 6.0 0.00 0.00 0.00 67 1014.5
20260902075217 83 180 4.0 6.0 0.00 0.00 0.00 67 1014.6
20260902074217 83 180 3.0 4.0 0.00 0.00 0.00 67 1014.5
20260902073237 83 180 1.0 2.0 0.00 0.00 0.00 66 1014.6
20260902072217 83 203 2.0 4.0 0.00 0.00 0.00 65 1014.7
20260902071217 84 180 3.0 4.0 0.00 0.00 0.00 65 1014.7
20260902070217 84 203 3.0 5.0 0.00 0.00 0.00 64 1014.7
20260902065217 84 180 4.0 6.0 0.00 0.00 0.00 63 1014.6
20260902064217 85 180 3.0 5.0 0.00 0.00 0.00 62 1014.4
20260902063217 85 180 3.0 6.0 0.00 0.00 0.00 62 1014.4
20260902062217 85 135 3.0 5.0 0.00 0.00 0.00 61 1014.4
20260902061217 85 0 5.0 7.0 0.00 0.00 0.00 61 1014.4
20260902060217 86 0 4.0 5.0 0.00 0.00 0.00 60 1014.3
20260902055217 86 135 4.0 5.0 0.00 0.00 0.00 59 1014.2
20260902054237 86 135 5.0 7.0 0.00 0.00 0.00 59 1014.1
20260902053217 86 0 4.0 7.0 0.00 0.00 0.00 59 1014.1
20260902052217 86 135 5.0 6.0 0.00 0.00 0.00 59 1014.1
20260902051217 86 0 6.0 8.0 0.00 0.00 0.00 59 1014.1
20260902050217 87 0 6.0 8.0 0.00 0.00 0.00 59 1014.1
20260902045216 87 0 6.0 7.0 0.00 0.00 0.00 59 1014.1
20260902044216 87 0 7.0 10.0 0.00 0.00 0.00 58 1014.1
20260902043216 87 135 7.0 9.0 0.00 0.00 0.00 58 1014.1
20260902042216 87 0 5.0 6.0 0.00 0.00 0.00 58 1014.0
20260902041216 88 0 5.0 7.0 0.00 0.00 0.00 57 1014.0
20260902040217 88 135 6.0 7.0 0.00 0.00 0.00 56 1014.0
20260902035216 88 0 5.0 7.0 0.00 0.00 0.00 56 1013.9
20260902034236 89 135 6.0 9.0 0.00 0.00 0.00 55 1013.8
20260902033216 89 135 4.0 5.0 0.00 0.00 0.00 55 1013.8
20260902032216 89 135 5.0 7.0 0.00 0.00 0.00 54 1013.7
20260902031216 89 0 4.0 5.0 0.00 0.00 0.00 53 1013.6
20260902030216 90 135 5.0 6.0 0.00 0.00 0.00 53 1013.5
20260902025216 90 0 3.0 5.0 0.00 0.00 0.00 52 1013.3
20260902024216 91 135 6.0 7.0 0.00 0.00 0.00 51 1013.1
20260902023256 91 0 5.0 7.0 0.00 0.00 0.00 50 1012.9
20260902022216 91 0 4.0 6.0 0.00 0.00 0.00 50 1012.7
20260902021216 92 0 5.0 7.0 0.00 0.00 0.00 49 1012.6
20260902020216 92 0 8.0 10.0 0.00 0.00 0.00 48 1012.4
20260902015216 93 0 7.0 9.0 0.00 0.00 0.00 47 1012.1
20260902014236 93 0 6.0 8.0 0.00 0.00 0.00 47 1012.1
20260902013216 94 0 2.0 4.0 0.00 0.00 0.00 46 1012.0
20260902012216 94 135 3.0 5.0 0.00 0.00 0.00 46 1011.9
20260902011216 94 0 2.0 4.0 0.00 0.00 0.00 45 1011.9
20260902010216 95 0 4.0 6.0 0.00 0.00 0.00 44 1011.8
20260902005216 95 135 1.0 4.0 0.00 0.00 0.00 44 1011.9
20260902004216 96 0 5.0 6.0 0.00 0.00 0.00 42 1011.9
20260902003216 96 135 4.0 5.0 0.00 0.00 0.00 42 1012.0
20260902002216 96 135 1.0 3.0 0.00 0.00 0.00 42 1012.1
20260902001216 97 0 6.0 8.0 0.00 0.00 0.00 42 1012.1
20260902000215 97 0 4.0 6.0 0.00 0.00 0.00 41 1012.2
20260901235216 98 0 6.0 9.0 0.00 0.00 0.00 41 1012.2
20260901234236 98 0 6.0 12.0 0.00 0.00 0.00 40 1012.3
20260901233235 99 0 4.0 9.0 0.00 0.00 0.00 39 1012.3
20260901232215 99 90 2.0 6.0 0.00 0.00 0.00 39 1012.4
20260901231236 99 0 4.0 6.0 0.00 0.00 0.00 40 1012.4
20260901230236 99 0 3.0 4.0 0.00 0.00 0.00 39 1012.4
20260901225216 98 0 5.0 8.0 0.00 0.00 0.00 40 1012.4
20260901224216 97 0 3.0 8.0 0.00 0.00 0.00 40 1012.3
20260901223215 97 0 9.0 11.0 0.00 0.00 0.00 41 1012.4
20260901222215 97 68 2.0 5.0 0.00 0.00 0.00 41 1012.5
20260901221215 98 0 6.0 8.0 0.00 0.00 0.00 41 1012.6
20260901220216 98 0 4.0 6.0 0.00 0.00 0.00 41 1012.6
20260901215215 99 0 7.0 9.0 0.00 0.00 0.00 41 1012.8
20260901214215 99 0 5.0 9.0 0.00 0.00 0.00 41 1012.8
20260901213235 99 0 10.0 18.0 0.00 0.00 0.00 41 1012.7
20260901212215 98 0 9.0 12.0 0.00 0.00 0.00 42 1012.9
20260901211215 98 0 8.0 13.0 0.00 0.00 0.00 42 1012.9
20260901210215 99 0 5.0 9.0 0.00 0.00 0.00 41 1013.0
20260901205215 99 0 8.0 10.0 0.00 0.00 0.00 41 1013.1
20260901204256 99 0 11.0 16.0 0.00 0.00 0.00 41 1013.2
20260901203215 98 0 5.0 9.0 0.00 0.00 0.00 40 1013.3
20260901202215 98 0 8.0 11.0 0.00 0.00 0.00 41 1013.3
20260901201215 99 0 4.0 8.0 0.00 0.00 0.00 41 1013.6
20260901200215 99 68 1.0 4.0 0.00 0.00 0.00 42 1013.9
20260901195215 98 90 1.0 2.0 0.00 0.00 0.00 42 1013.9
20260901194237 98 0 5.0 9.0 0.00 0.00 0.00 42 1013.9
20260901193215 97 0 7.0 10.0 0.00 0.00 0.00 42 1014.1
20260901192217 98 0 6.0 11.0 0.00 0.00 0.00 41 1014.2
20260901191217 97 113 4.0 7.0 0.00 0.00 0.00 42 1014.2
20260901190217 97 203 8.0 11.0 0.00 0.00 0.00 42 1014.4
20260901185237 96 0 4.0 6.0 0.00 0.00 0.00 45 1014.5
20260901184215 96 225 5.0 8.0 0.00 0.00 0.00 46 1014.7
20260901183217 97 0 6.0 11.0 0.00 0.00 0.00 44 1014.9
20260901182217 96 135 1.0 2.0 0.00 0.00 0.00 47 1015.1
20260901181217 96 180 6.0 8.0 0.00 0.00 0.00 46 1015.3
20260901180217 96 0 6.0 8.0 0.00 0.00 0.00 47 1015.6
20260901175237 96 0 6.0 8.0 0.00 0.00 0.00 47 1015.6
20260901174217 96 0 5.0 8.0 0.00 0.00 0.00 46 1015.8
20260901173217 95 225 4.0 6.0 0.00 0.00 0.00 49 1015.9
20260901172217 95 0 8.0 11.0 0.00 0.00 0.00 48 1016.1
20260901171217 95 0 6.0 9.0 0.00 0.00 0.00 48 1016.3
20260901170217 95 0 5.0 9.0 0.00 0.00 0.00 49 1016.4
20260901165217 94 203 2.0 5.0 0.00 0.00 0.00 51 1016.4
20260901164217 94 270 4.0 6.0 0.00 0.00 0.00 51 1016.5
20260901163217 93 0 5.0 7.0 0.00 0.00 0.00 53 1016.5
20260901162216 94 0 5.0 8.0 0.00 0.00 0.00 52 1016.5
20260901161217 92 203 3.0 4.0 0.00 0.00 0.00 54 1016.5
20260901160217 92 0 6.0 8.0 0.00 0.00 0.00 54 1016.7
20260901155217 92 158 3.0 6.0 0.00 0.00 0.00 55 1016.6
20260901154237 91 0 5.0 7.0 0.00 0.00 0.00 56 1016.6
20260901153237 90 248 3.0 5.0 0.00 0.00 0.00 58 1016.6
20260901152216 89 180 1.0 4.0 0.00 0.00 0.00 59 1016.5
20260901151217 89 203 5.0 6.0 0.00 0.00 0.00 60 1016.5
20260901150216 89 135 1.0 2.0 0.00 0.00 0.00 61 1016.6
20260901145216 87 180 3.0 5.0 0.00 0.00 0.00 63 1016.6
20260901144216 87 0 6.0 8.0 0.00 0.00 0.00 63 1016.7
20260901143216 85 203 3.0 5.0 0.00 0.00 0.00 65 1016.6
20260901142216 85 0 4.0 5.0 0.00 0.00 0.00 66 1016.7
20260901141216 84 0 4.0 7.0 0.00 0.00 0.00 66 1016.6
20260901140216 83 180 2.0 4.0 0.00 0.00 0.00 68 1016.6
20260901135216 82 180 5.0 7.0 0.00 0.00 0.00 68 1016.7
20260901134216 82 0 3.0 5.0 0.00 0.00 0.00 69 1016.5
20260901133216 82 158 4.0 7.0 0.00 0.00 0.00 69 1016.4
20260901132216 81 180 4.0 7.0 0.00 0.00 0.00 69 1016.4
20260901131216 80 158 3.0 5.0 0.00 0.00 0.00 70 1016.3
20260901130216 80 180 2.0 4.0 0.00 0.00 0.00 70 1016.3
20260901125216 80 0 2.0 4.0 0.00 0.00 0.00 70 1016.2
20260901124216 80 0 3.0 4.0 0.00 0.00 0.00 70 1016.0
20260901123216 79 0.0 0.0 0.00 0.00 0.00 70 1015.9
20260901122216 79 0.0 0.0 0.00 0.00 0.00 70 1015.9
20260901121216 79 0.0 0.0 0.00 0.00 0.00 70 1015.7
20260901120216 79 0.0 1.0 0.00 0.00 0.00 70 1015.6
20260901115216 79 0 2.0 4.0 0.00 0.00 0.00 70 1015.5
20260901114216 79 180 1.0 3.0 0.00 0.00 0.00 69 1015.5